[[{"header":{"parameterUnit":"m.s-1","parameterCategory":1,"la1":30.2991,"la2":30.254,"lo1":-89.0895,"lo2":-89.0444,"dx":0.0017,"dy":0.0017,"nx":28,"ny":28,"refTime":"2023-01-12T15:00:00:Z","depth":0,"parameterNumber":2,"parameterNumberName":"U-component_of_WINDS"},"data":[0,0,0,0,0,0,0,0,0,0,0,0,0,0,0,0,0,0,0,0,0,0,0,0,0,0,0,0,0,0,0,0,0,0,0,0,0,0,0,0,0,0,0,0,0,0,0,0,0,0,0,0,0,0,0,0,0,0,4.0585,4.0586,0,4.065,4.065,4.0651,4.0624,4.0623,4.0621,4.062,4.0684,4.0687,4.069,0,0,0,0,0,0,0,0,0,0,0,0,0,4.0438,4.0441,4.0585,4.0586,4.0586,4.0649,4.065,4.0651,4.0624,4.0623,4.0621,4.0619,4.0683,4.0686,4.069,0,0,0,0,0,0,0,0,0,0,0,0,0,4.0502,4.0442,4.0585,4.0581,4.0581,4.0649,4.065,4.0651,4.0625,4.0623,4.062,4.0618,4.0682,4.0686,4.0691,4.0766,0,0,4.0705,4.0707,0,0,0,0,0,0,0,0,4.0498,4.0507,4.0581,4.0581,4.0582,4.0626,4.0622,4.069,4.0625,4.0608,4.062,4.0617,4.0666,4.0672,4.0689,4.0769,4.0772,4.0706,4.0708,4.071,4.0712,0,0,0,0,0,0,0,4.0494,4.0504,4.061,4.0582,4.0582,4.0576,4.0582,4.0635,4.0649,4.0609,4.0608,4.0616,4.0666,4.0685,4.0691,4.0773,4.0705,4.071,4.0712,4.0714,4.0919,4.0922,0,0,0,0,0,0,4.049,4.0501,4.0608,4.0612,4.0534,4.058,4.0587,4.0614,4.0649,4.0652,4.0618,4.0614,4.0678,4.0685,4.0693,4.0784,4.071,4.0715,4.0717,4.0917,4.092,4.0923,0,0,0,0,0,0,4.0486,4.0499,4.0606,4.0556,4.0569,4.0585,4.0616,4.0617,4.0635,4.0655,4.0657,4.0634,4.0676,4.0686,4.0749,4.0786,4.0717,4.0721,4.0913,4.0918,4.0921,4.0967,0,0,0,0,0,0,4.0482,4.0498,4.0527,4.0557,4.0572,4.0661,4.0618,4.062,4.0644,4.064,4.0671,4.0674,4.0675,4.0742,4.0753,4.0791,4.0725,4.091,4.0915,4.092,4.0962,4.0972,4.098,0,0,0,0,0,4.0477,4.0536,4.0529,4.0542,4.0608,4.0663,4.0671,4.0672,4.0647,4.0676,4.0689,4.0673,4.078,4.0748,4.0761,4.0801,4.0908,4.0914,4.092,4.0958,4.097,4.098,0,0,0,0,0,0,4.0509,4.054,4.0532,4.0603,4.0631,4.0658,4.0694,4.0685,4.0719,4.0714,4.0714,4.0721,4.0786,4.08,4.0763,4.0877,4.084,4.0849,4.0865,4.0877,4.0885,4.088,4.0729,0,0,0,0,0,4.0525,4.0567,4.0591,4.0652,4.0666,4.0678,4.0702,4.0701,4.0729,4.074,4.0758,4.0785,4.0826,4.0852,4.089,4.0964,4.0971,4.0998,4.1007,4.1015,4.1022,4.1064,4.1077,4.0942,4.0942,4.0942,0,0,4.0556,4.0579,4.0605,4.0659,4.068,4.0724,4.0688,4.0735,4.0768,4.0747,4.0808,4.0822,4.0853,4.0922,4.0953,4.0935,4.1061,4.1022,4.1028,4.1031,4.1071,4.1084,4.1095,4.0946,4.0945,4.0944,0,0,4.0637,4.0658,4.0711,4.0734,4.0767,4.0775,4.0788,4.0818,4.0827,4.0888,4.0874,4.0913,4.0981,4.1005,4.1025,4.1118,4.1105,4.113,4.1177,4.1218,4.1229,4.1238,4.1272,4.1284,4.1138,4.1138,4.1138,0,4.0672,4.0738,4.0739,4.0789,4.0813,4.0798,4.0852,4.0874,4.0918,4.0935,4.0915,4.1002,4.1022,4.1097,4.112,4.1137,4.1152,4.1126,4.1227,4.1237,4.1246,4.1278,4.129,4.1141,4.114,4.114,4.114,0,4.078,4.0826,4.0865,4.0909,4.0938,4.0989,4.0998,4.1027,4.1025,4.1035,4.1098,4.1122,4.1165,4.1183,4.1179,4.1258,4.1246,4.1227,4.119,4.1261,4.1292,4.1304,4.1145,4.1144,4.1143,4.1142,0,0,4.088,4.0927,4.0941,4.0962,4.0999,4.1034,4.1085,4.1129,4.1154,4.1185,4.1228,4.1288,4.1272,4.1295,4.1295,4.1331,4.1404,4.1307,4.1308,4.1325,4.1493,4.1507,4.1521,4.1396,4.1398,4.14,4.149,0,4.0964,4.1054,4.1058,4.1141,4.1184,4.1172,4.1216,4.1244,4.1256,4.1294,4.1306,4.1349,4.1323,4.1338,4.1373,4.1387,4.1438,4.1381,4.1436,4.1438,4.1428,4.1537,4.1552,4.1636,4.1502,4.1504,4.1506,0,4.1073,4.1109,4.1196,4.1229,4.1247,4.1288,4.1329,4.1365,4.1397,4.1403,4.1431,4.1426,4.1479,4.1442,4.1515,4.1476,4.1499,4.151,4.1514,4.1518,4.1476,4.1545,4.1663,4.1675,4.1524,4.1523,4.1521,0,4.1138,4.1209,4.1271,4.1289,4.1328,4.1357,4.1375,4.1404,4.1431,4.1467,4.1484,4.1526,4.1548,4.1581,4.1587,4.1559,4.1661,4.1624,4.1668,4.1668,4.1689,4.1687,4.1812,4.1704,4.1704,4.1704,4.1703,0,4.1231,4.1285,4.1301,4.1339,4.1399,4.1404,4.1463,4.1479,4.1506,4.1547,4.1539,4.1577,4.1584,4.1624,4.163,4.169,4.17,4.1707,4.1707,4.1707,4.1707,4.1722,4.1716,4.1707,4.1706,4.1706,4.1705,0,4.1313,4.1326,4.1393,4.1426,4.1435,4.1478,4.1507,4.1543,4.1555,4.1607,4.1619,4.1637,4.1685,4.1695,4.175,4.1754,4.1826,4.1821,4.1816,4.1815,4.1859,4.1855,4.1998,4.2017,4.1896,4.1897,4.1898,0,4.1372,4.1413,4.1451,4.1479,4.1498,4.1542,4.157,4.1576,4.1606,4.1646,4.1678,4.1725,4.1762,4.1838,4.1856,4.1899,4.1895,4.1942,4.1901,4.1901,4.1896,4.1894,4.1898,4.195,4.1951,4.1952,4.1953,0,4.1474,4.1479,4.1519,4.1563,4.1596,4.1631,4.1663,4.1686,4.1697,4.1731,4.1779,4.1809,4.1867,4.1913,4.1957,4.1975,4.1966,4.1966,4.1979,4.1979,4.1974,4.1978,4.1837,4.1962,4.1962,4.1961,4.196,4.196,4.1546,4.1583,4.1616,4.1662,4.1688,4.1719,4.1756,4.1773,4.1814,4.1862,4.1864,4.1917,4.1949,4.2007,4.2028,4.207,4.2056,4.2074,4.2078,4.2082,4.2087,4.1968,4.2078,4.2078,4.2078,4.2078,4.2077,0,4.1648,4.167,4.1712,4.1759,4.1795,4.1785,4.1821,4.1852,4.19,4.1931,4.1969,4.2026,4.2072,4.2094,4.214,4.2169,4.2166,4.2181,4.2178,4.2183,4.2097,4.2082,4.2182,4.2182,4.2182,4.2182,4.2182,4.2182,4.1706,4.1768,4.1777,4.1852,4.1873,4.1926,4.1948,4.1977,4.2002,4.2067,4.2105,4.212,4.2148,4.2196,4.2238,4.2243,4.226,4.2277,4.2281,4.22,4.2189,4.2179,4.2164,4.2281,4.2281,4.2363,4.2364,4.2364]},{"header":{"parameterUnit":"m.s-1","parameterCategory":1,"la1":30.2991,"la2":30.254,"lo1":-89.0895,"lo2":-89.0444,"dx":0.0017,"dy":0.0017,"nx":28,"ny":28,"refTime":"2023-01-12T15:00:00:Z","depth":0,"parameterNumber":3,"parameterNumberName":"V-component_of_WINDS"},"data":[0,0,0,0,0,0,0,0,0,0,0,0,0,0,0,0,0,0,0,0,0,0,0,0,0,0,0,0,0,0,0,0,0,0,0,0,0,0,0,0,0,0,0,0,0,0,0,0,0,0,0,0,0,0,0,0,0,0,-7.0571,-7.0573,0,-7.0695,-7.0697,-7.0698,-7.0643,-7.0639,-7.0636,-7.0634,-7.0756,-7.0762,-7.0768,0,0,0,0,0,0,0,0,0,0,0,0,0,-7.0282,-7.0287,-7.0571,-7.0573,-7.0574,-7.0695,-7.0697,-7.0699,-7.0643,-7.0639,-7.0636,-7.0632,-7.0754,-7.0761,-7.0768,0,0,0,0,0,0,0,0,0,0,0,0,0,-7.0407,-7.0289,-7.0571,-7.0561,-7.0562,-7.0695,-7.0697,-7.0699,-7.0644,-7.0639,-7.0635,-7.063,-7.0751,-7.076,-7.0769,-7.0918,0,0,-7.0797,-7.0801,0,0,0,0,0,0,0,0,-7.04,-7.0418,-7.0561,-7.0562,-7.0563,-7.0649,-7.064,-7.0772,-7.0645,-7.0612,-7.0633,-7.0628,-7.0724,-7.0735,-7.0768,-7.0924,-7.0929,-7.0798,-7.0804,-7.0808,-7.081,0,0,0,0,0,0,0,-7.0391,-7.0412,-7.062,-7.0563,-7.0564,-7.0549,-7.0562,-7.0665,-7.0692,-7.0615,-7.0611,-7.0627,-7.0723,-7.0759,-7.077,-7.0931,-7.0798,-7.0806,-7.0812,-7.0815,-7.1216,-7.122,0,0,0,0,0,0,-7.0383,-7.0405,-7.0616,-7.0624,-7.0469,-7.0558,-7.0573,-7.0626,-7.0691,-7.0696,-7.0631,-7.0624,-7.0746,-7.076,-7.0775,-7.0954,-7.0808,-7.0816,-7.0821,-7.121,-7.1217,-7.1222,0,0,0,0,0,0,-7.0377,-7.0403,-7.0611,-7.0514,-7.0539,-7.0568,-7.0628,-7.0631,-7.0667,-7.0703,-7.0707,-7.0663,-7.0743,-7.0762,-7.0883,-7.0957,-7.082,-7.0829,-7.1204,-7.1212,-7.1219,-7.1313,0,0,0,0,0,0,-7.0369,-7.0401,-7.0458,-7.0515,-7.0544,-7.0719,-7.0633,-7.0636,-7.0683,-7.0676,-7.0734,-7.0739,-7.0741,-7.087,-7.0893,-7.0967,-7.0836,-7.1198,-7.1208,-7.1217,-7.1304,-7.1323,-7.134,0,0,0,0,0,-7.0359,-7.0478,-7.0462,-7.0487,-7.0617,-7.0724,-7.074,-7.0741,-7.069,-7.0747,-7.0771,-7.0738,-7.0946,-7.0883,-7.0908,-7.0987,-7.1193,-7.1205,-7.1216,-7.1295,-7.1319,-7.1339,0,0,0,0,0,0,-7.0427,-7.0486,-7.0468,-7.0609,-7.0662,-7.0714,-7.0787,-7.0766,-7.0833,-7.0822,-7.0818,-7.0832,-7.0959,-7.0984,-7.0914,-7.1134,-7.1061,-7.1079,-7.1113,-7.1136,-7.1154,-7.1145,-7.0843,0,0,0,0,0,-7.0459,-7.0542,-7.0588,-7.0708,-7.0736,-7.0757,-7.0803,-7.08,-7.0853,-7.0875,-7.0907,-7.096,-7.1037,-7.1088,-7.1161,-7.1307,-7.1319,-7.1373,-7.1392,-7.1406,-7.1421,-7.1502,-7.1527,-7.126,-7.126,-7.126,0,0,-7.0525,-7.0567,-7.0619,-7.0723,-7.0764,-7.0849,-7.0776,-7.0869,-7.0932,-7.0888,-7.1006,-7.1032,-7.109,-7.1225,-7.1286,-7.1251,-7.1498,-7.1421,-7.1432,-7.1439,-7.1516,-7.1541,-7.1564,-7.1268,-7.1267,-7.1265,0,0,-7.0689,-7.0729,-7.0834,-7.0877,-7.0941,-7.0954,-7.098,-7.1036,-7.1052,-7.117,-7.114,-7.1214,-7.1347,-7.139,-7.143,-7.1612,-7.1584,-7.1636,-7.173,-7.1809,-7.183,-7.1848,-7.1914,-7.1938,-7.165,-7.1651,-7.1651,0,-7.0762,-7.0891,-7.0891,-7.0987,-7.1034,-7.1001,-7.1107,-7.1148,-7.1232,-7.1264,-7.1223,-7.1391,-7.1428,-7.1573,-7.1618,-7.1651,-7.1679,-7.1629,-7.1827,-7.1846,-7.1863,-7.1926,-7.1951,-7.1656,-7.1656,-7.1655,-7.1655,0,-7.0978,-7.1068,-7.1145,-7.123,-7.1285,-7.1386,-7.14,-7.1456,-7.1448,-7.1465,-7.1587,-7.163,-7.1712,-7.1746,-7.1737,-7.1891,-7.1867,-7.1827,-7.1754,-7.1894,-7.1953,-7.1977,-7.1665,-7.1663,-7.1661,-7.166,0,0,-7.1188,-7.1272,-7.1301,-7.1339,-7.1407,-7.1476,-7.1575,-7.1658,-7.1706,-7.1764,-7.1848,-7.1962,-7.1926,-7.1971,-7.1967,-7.2036,-7.2179,-7.1988,-7.1989,-7.2022,-7.2352,-7.2382,-7.241,-7.2161,-7.2166,-7.2169,-7.2347,0,-7.1357,-7.1534,-7.1538,-7.1699,-7.1782,-7.1753,-7.1839,-7.189,-7.1909,-7.1982,-7.2002,-7.2084,-7.203,-7.2057,-7.2124,-7.2148,-7.2245,-7.2135,-7.2238,-7.2242,-7.2225,-7.2441,-7.2473,-7.2638,-7.237,-7.2374,-7.2377,0,-7.1579,-7.1648,-7.1818,-7.1876,-7.1911,-7.1989,-7.2065,-7.2135,-7.2192,-7.2201,-7.2253,-7.2239,-7.234,-7.2264,-7.2402,-7.2327,-7.2369,-7.2388,-7.2394,-7.2404,-7.2318,-7.2457,-7.2691,-7.2716,-7.2413,-7.241,-7.2408,0,-7.1716,-7.1851,-7.1971,-7.2004,-7.2074,-7.213,-7.2162,-7.2214,-7.2264,-7.233,-7.2362,-7.2439,-7.248,-7.2539,-7.2546,-7.249,-7.2686,-7.261,-7.2696,-7.2697,-7.2739,-7.2736,-7.2984,-7.2766,-7.2765,-7.2765,-7.2764,0,-7.1906,-7.2011,-7.2033,-7.2107,-7.2225,-7.2227,-7.2343,-7.237,-7.2417,-7.2495,-7.2473,-7.2546,-7.2551,-7.2626,-7.2632,-7.2746,-7.2765,-7.2775,-7.2775,-7.2777,-7.2776,-7.2805,-7.2794,-7.2771,-7.277,-7.2769,-7.2767,0,-7.2079,-7.2098,-7.2227,-7.2284,-7.23,-7.2385,-7.2433,-7.2503,-7.252,-7.2619,-7.2642,-7.267,-7.2757,-7.277,-7.2871,-7.2875,-7.3013,-7.3001,-7.2995,-7.2993,-7.3079,-7.3071,-7.3355,-7.3392,-7.3149,-7.3151,-7.3153,0,-7.2199,-7.228,-7.2346,-7.2398,-7.2433,-7.2516,-7.2568,-7.2573,-7.2628,-7.27,-7.2761,-7.2847,-7.2915,-7.3056,-7.3084,-7.3162,-7.3152,-7.3246,-7.3163,-7.3163,-7.3154,-7.315,-7.3158,-7.3261,-7.3264,-7.3266,-7.3268,0,-7.241,-7.2417,-7.2492,-7.2573,-7.2635,-7.2698,-7.2757,-7.28,-7.2813,-7.2875,-7.2966,-7.3019,-7.3124,-7.3209,-7.3287,-7.3317,-7.3296,-7.3294,-7.3318,-7.3322,-7.3315,-7.3321,-7.3039,-7.3287,-7.3285,-7.3284,-7.3283,-7.3282,-7.2561,-7.2633,-7.2691,-7.2777,-7.2823,-7.2879,-7.2948,-7.2976,-7.3052,-7.3139,-7.3138,-7.3237,-7.3292,-7.3394,-7.3431,-7.3507,-7.3477,-7.3511,-7.352,-7.3529,-7.3538,-7.3303,-7.3521,-7.3521,-7.352,-7.352,-7.3519,0,-7.2773,-7.281,-7.2889,-7.2973,-7.3041,-7.3016,-7.3081,-7.3139,-7.3227,-7.3281,-7.335,-7.3454,-7.3537,-7.3573,-7.3654,-7.3708,-7.37,-7.373,-7.3726,-7.3734,-7.3561,-7.3532,-7.3735,-7.3735,-7.3735,-7.3735,-7.3735,-7.3735,-7.2891,-7.3011,-7.3024,-7.3166,-7.3202,-7.3301,-7.334,-7.3391,-7.3435,-7.3553,-7.3623,-7.3646,-7.3693,-7.3778,-7.3852,-7.386,-7.3891,-7.3926,-7.3929,-7.3767,-7.3745,-7.3725,-7.3698,-7.3932,-7.3932,-7.4096,-7.4097,-7.4099]}]]